• In Deutschland
  • Länderverzeichnis
  • Für 7 Tage
  • Wassertemperatur
  • Satellitenkarten
  • Wetterkarte
  • Widgets
  • user-avatar
    Anmelden

    Stündliche Wetter Bad Liebenzell

    Heute, 27 April, Freitag

    Zeit Temperatur Niederschläge Wind Luftdruck Luftfeuchtigkeit
    00:00 +6°C° 0 mm 1 m/S 716 mmHg 74%
    01:00 +6°C° 0 mm 1 m/S 715 mmHg 75%
    02:00 +5°C° 0 mm 1 m/S 715 mmHg 75%
    03:00 +5°C° 0 mm 1 m/S 714 mmHg 76%
    04:00 +5°C° 0 mm 1 m/S 714 mmHg 76%
    05:00 +6°C° 0 mm 1 m/S 713 mmHg 74%
    06:00 +7°C° 0 mm 1 m/S 713 mmHg 71%
    07:00 +7°C° 0 mm 2 m/S 713 mmHg 69%
    08:00 +9°C° 0 mm 2 m/S 712 mmHg 64%
    09:00 +11°C° 0 mm 3 m/S 712 mmHg 59%
    10:00 +13°C° 0 mm 3 m/S 712 mmHg 54%
    11:00 +16°C° 0 mm 3 m/S 711 mmHg 52%
    12:00 +17°C° 0 mm 3 m/S 711 mmHg 49%
    13:00 +19°C° 0 mm 3 m/S 710 mmHg 46%
    14:00 +19°C° 0 mm 3 m/S 710 mmHg 45%
    15:00 +20°C° 0 mm 3 m/S 710 mmHg 44%
    16:00 +21°C° 0 mm 3 m/S 709 mmHg 44%
    17:00 +19°C° 0 mm 2 m/S 709 mmHg 50%
    18:00 +18°C° 0 mm 2 m/S 709 mmHg 57%
    19:00 +16°C° 0 mm 2 m/S 709 mmHg 64%
    20:00 +15°C° 0 mm 2 m/S 710 mmHg 67%
    21:00 +13°C° 0 mm 2 m/S 710 mmHg 71%
    22:00 +12°C° 0 mm 2 m/S 711 mmHg 75%
    23:00 +10°C° 0 mm 2 m/S 711 mmHg 77%

    Morgen, 28 April, Samstag

    Zeit Temperatur Niederschläge Wind Luftdruck Luftfeuchtigkeit
    00:00 +10°C° 0 mm 2 m/S 711 mmHg 79%
    01:00 +9°C° 0 mm 2 m/S 711 mmHg 81%
    02:00 +9°C° 0 mm 2 m/S 711 mmHg 84%
    03:00 +8°C° 0 mm 2 m/S 712 mmHg 86%
    04:00 +8°C° 0 mm 2 m/S 712 mmHg 89%
    05:00 +8°C° 0 mm 2 m/S 712 mmHg 86%
    06:00 +10°C° 0 mm 1 m/S 712 mmHg 83%
    07:00 +11°C° 0 mm 1 m/S 712 mmHg 80%
    08:00 +12°C° 0 mm 1 m/S 713 mmHg 75%
    09:00 +13°C° 0 mm 2 m/S 713 mmHg 69%
    10:00 +15°C° 0 mm 2 m/S 713 mmHg 64%
    11:00 +16°C° 0 mm 1 m/S 712 mmHg 61%
    12:00 +18°C° 0 mm 1 m/S 712 mmHg 58%
    13:00 +19°C° 0 mm 1 m/S 712 mmHg 55%
    14:00 +19°C° 0 mm 1 m/S 711 mmHg 56%
    15:00 +20°C° 0 mm 1 m/S 711 mmHg 57%
    16:00 +20°C° 0 mm 1 m/S 710 mmHg 57%
    17:00 +18°C° 0,1 mm 1 m/S 710 mmHg 64%
    18:00 +16°C° 0,1 mm 1 m/S 710 mmHg 70%
    19:00 +15°C° 0,1 mm 1 m/S 710 mmHg 77%
    20:00 +14°C° 0,5 mm 1 m/S 710 mmHg 80%
    21:00 +13°C° 0,5 mm 1 m/S 710 mmHg 83%
    22:00 +12°C° 0,5 mm 1 m/S 710 mmHg 86%
    23:00 +12°C° 0,8 mm 1 m/S 710 mmHg 88%

    übermorgen, 29 April, Sonntag

    Zeit Temperatur Niederschläge Wind Luftdruck Luftfeuchtigkeit
    00:00 +12°C° 0,8 mm 1 m/S 710 mmHg 90%
    01:00 +11°C° 0,8 mm 1 m/S 710 mmHg 91%
    02:00 +11°C° 0,1 mm 1 m/S 709 mmHg 92%
    03:00 +11°C° 0,1 mm 1 m/S 709 mmHg 93%
    04:00 +10°C° 0,1 mm 1 m/S 709 mmHg 94%
    05:00 +11°C° 0 mm 1 m/S 708 mmHg 93%
    06:00 +12°C° 0 mm 1 m/S 708 mmHg 92%
    07:00 +13°C° 0 mm 2 m/S 708 mmHg 91%
    08:00 +15°C° 0 mm 1 m/S 708 mmHg 82%
    09:00 +18°C° 0 mm 1 m/S 708 mmHg 74%
    10:00 +21°C° 0 mm 1 m/S 708 mmHg 65%
    11:00 +21°C° 0,1 mm 2 m/S 707 mmHg 59%
    12:00 +22°C° 0,1 mm 3 m/S 706 mmHg 54%
    13:00 +23°C° 0,1 mm 4 m/S 706 mmHg 49%
    14:00 +24°C° 0 mm 3 m/S 705 mmHg 50%
    15:00 +24°C° 0 mm 3 m/S 704 mmHg 51%
    16:00 +25°C° 0 mm 3 m/S 704 mmHg 52%
    17:00 +22°C° 0,1 mm 3 m/S 703 mmHg 59%
    18:00 +20°C° 0,1 mm 3 m/S 703 mmHg 65%
    19:00 +19°C° 0,1 mm 3 m/S 702 mmHg 72%
    20:00 +16°C° 0,2 mm 5 m/S 703 mmHg 75%
    21:00 +13°C° 0,2 mm 6 m/S 703 mmHg 79%
    22:00 +10°C° 0,2 mm 8 m/S 704 mmHg 82%
    23:00 +9°C° 0,1 mm 7 m/S 705 mmHg 82%

    30 April, Montag

    Zeit Temperatur Niederschläge Wind Luftdruck Luftfeuchtigkeit
    00:00 +9°C° 0,1 mm 7 m/S 706 mmHg 83%
    01:00 +8°C° 0,1 mm 6 m/S 707 mmHg 83%
    02:00 +7°C° 0,1 mm 6 m/S 707 mmHg 82%
    03:00 +7°C° 0,1 mm 6 m/S 708 mmHg 81%
    04:00 +5°C° 0,1 mm 6 m/S 708 mmHg 80%
    05:00 +5°C° 0 mm 6 m/S 708 mmHg 77%
    06:00 +6°C° 0 mm 7 m/S 709 mmHg 74%
    07:00 +6°C° 0 mm 7 m/S 709 mmHg 71%
    08:00 +8°C° 0 mm 7 m/S 709 mmHg 67%
    09:00 +8°C° 0 mm 7 m/S 710 mmHg 63%
    10:00 +9°C° 0 mm 7 m/S 710 mmHg 58%
    11:00 +10°C° 0 mm 7 m/S 710 mmHg 54%
    12:00 +11°C° 0 mm 7 m/S 710 mmHg 51%
    13:00 +12°C° 0 mm 7 m/S 711 mmHg 47%
    14:00 +14°C° 0 mm 6 m/S 710 mmHg 46%
    15:00 +14°C° 0 mm 6 m/S 710 mmHg 46%
    16:00 +14°C° 0 mm 5 m/S 710 mmHg 46%
    17:00 +13°C° 0 mm 4 m/S 710 mmHg 52%
    18:00 +12°C° 0 mm 3 m/S 710 mmHg 58%
    19:00 +12°C° 0 mm 2 m/S 710 mmHg 64%
    20:00 +11°C° 0 mm 1 m/S 711 mmHg 67%
    21:00 +10°C° 0 mm 1 m/S 711 mmHg 71%
    22:00 +9°C° 0 mm 1 m/S 711 mmHg 74%
    23:00 +8°C° 0 mm 1 m/S 711 mmHg 76%

    1 Mai, Dienstag

    Zeit Temperatur Niederschläge Wind Luftdruck Luftfeuchtigkeit
    00:00 +8°C° 0 mm 1 m/S 711 mmHg 78%
    01:00 +7°C° 0 mm 0 m/S 711 mmHg 81%
    02:00 +7°C° 0,1 mm 0 m/S 711 mmHg 82%
    03:00 +7°C° 0,1 mm 1 m/S 711 mmHg 84%
    04:00 +7°C° 0,1 mm 1 m/S 711 mmHg 86%
    05:00 +7°C° 0,3 mm 1 m/S 711 mmHg 86%
    06:00 +7°C° 0,3 mm 1 m/S 711 mmHg 86%
    07:00 +7°C° 0,3 mm 1 m/S 712 mmHg 87%
    08:00 +8°C° 0,6 mm 1 m/S 712 mmHg 86%
    09:00 +8°C° 0,6 mm 1 m/S 712 mmHg 86%
    10:00 +7°C° 0,6 mm 2 m/S 712 mmHg 86%
    11:00 +7°C° 0,3 mm 2 m/S 712 mmHg 84%
    12:00 +7°C° 0,3 mm 2 m/S 712 mmHg 81%
    13:00 +8°C° 0,3 mm 2 m/S 713 mmHg 79%
    14:00 +8°C° 0,1 mm 2 m/S 713 mmHg 76%
    15:00 +9°C° 0,1 mm 2 m/S 713 mmHg 73%
    16:00 +10°C° 0,1 mm 2 m/S 713 mmHg 70%
    17:00 +10°C° 0 mm 1 m/S 713 mmHg 72%
    18:00 +10°C° 0 mm 1 m/S 713 mmHg 74%
    19:00 +9°C° 0 mm 1 m/S 713 mmHg 76%
    20:00 +9°C° 0 mm 1 m/S 714 mmHg 78%
    21:00 +8°C° 0 mm 1 m/S 714 mmHg 79%
    22:00 +8°C° 0 mm 1 m/S 714 mmHg 80%
    23:00 +7°C° 0 mm 1 m/S 714 mmHg 82%

    2 Mai, Mittwoch

    Zeit Temperatur Niederschläge Wind Luftdruck Luftfeuchtigkeit
    00:00 +7°C° 0 mm 1 m/S 714 mmHg 83%
    01:00 +6°C° 0 mm 1 m/S 714 mmHg 84%
    02:00 +6°C° 0,1 mm 1 m/S 714 mmHg 84%
    03:00 +6°C° 0,1 mm 1 m/S 714 mmHg 84%
    04:00 +6°C° 0,1 mm 1 m/S 714 mmHg 84%
    05:00 +6°C° 0 mm 1 m/S 714 mmHg 83%
    06:00 +6°C° 0 mm 2 m/S 714 mmHg 82%
    07:00 +6°C° 0 mm 2 m/S 714 mmHg 81%
    08:00 +7°C° 0,1 mm 2 m/S 715 mmHg 80%
    09:00 +8°C° 0,1 mm 3 m/S 715 mmHg 80%
    10:00 +8°C° 0,1 mm 3 m/S 715 mmHg 80%
    11:00 +8°C° 0,1 mm 3 m/S 715 mmHg 80%
    12:00 +8°C° 0,1 mm 4 m/S 714 mmHg 81%
    13:00 +8°C° 0,1 mm 4 m/S 714 mmHg 81%
    14:00 +8°C° 0,2 mm 4 m/S 714 mmHg 82%
    15:00 +8°C° 0,2 mm 3 m/S 714 mmHg 84%
    16:00 +8°C° 0,2 mm 3 m/S 714 mmHg 85%
    17:00 +8°C° 0,2 mm 3 m/S 714 mmHg 87%
    18:00 +8°C° 0,2 mm 3 m/S 714 mmHg 89%
    19:00 +7°C° 0,2 mm 3 m/S 714 mmHg 90%
    20:00 +7°C° 0,1 mm 3 m/S 714 mmHg 91%
    21:00 +7°C° 0,1 mm 3 m/S 715 mmHg 92%
    22:00 +7°C° 0,1 mm 2 m/S 715 mmHg 92%
    23:00 +6°C° 0,2 mm 2 m/S 715 mmHg 93%
    Mehr zeigen